Location: Unspecified
(0.0000°N, 0.0000°E)
Time: 13:44:32
(UTC+00:00)

Vanguard 2 - Pass Details

Date: 23 November 2019
Orbit: 553 x 2938 km, 32.9° (Epoch: 08 December)

Event Time Altitude Azimuth Distance (km) Brightness Sun altitude
Rises 07:17:13 0° 282° (WNW) 6,417 11.6 21.3°
Reaches altitude 10° 07:25:29 10° 306° (NW) 4,892 11.1 23.2°
Maximum altitude 07:30:51 13° 329° (NNW) 4,205 10.9 24.4°
Drops below altitude 10° 07:35:26 10° 354° (N) 4,032 11.0 25.5°
Sets 07:40:48 0° 21° (NNE) 4,463 11.4 26.7°
